Weather History for Imperial, CA

Change the Weather History Date:

Sunday, January 6, 2013

  Actual Average Record
Temperature  
Mean Temperature 52 °F -  
Max Temperature 66 °F 66 °F 80 °F (1969)
Min Temperature 37 °F 41 °F 24 °F (1950)
Degree Days  
Heating Degree Days 14    
Growing Degree Days 2 (Base 50)    
Moisture  
Dew Point 28 °F    
Average Humidity 43    
Maximum Humidity 59    
Minimum Humidity 26    
Precipitation  
Precipitation 0.00 in - - ()
Sea Level Pressure  
Sea Level Pressure 30.06 in    
Wind  
Wind Speed 6 mph (West)    
Max Wind Speed 16 mph    
Max Gust Speed 22 mph    
Visibility 10 miles    
Events      
Averages and records for this station are not official NWS values.
T = Trace of Precipitation, MM = Missing Value Source: NWS Daily Summary

Daily Weather History Graph

Daily Weather History Graph

Search for Another Location

Airport:

Trip Planner

Search our weather history database for the weather conditions in past years. The results will help you decide how hot, cold, wet, or windy it might be!

Date:

Astronomy

Jan. 06, 2013 Rise Set
Actual Time 6:45 AM PST 4:51 PM PST
Civil Twilight 6:18 AM PST 5:18 PM PST
Nautical Twilight 5:47 AM PST 5:48 PM PST
Astronomical Twilight 5:18 AM PST 6:18 PM PST
Moon 1:11 AM PST (1/6) 12:15 PM PST (1/6)
Length of Visible Light 10h 59m
Length of Day
10h 05m
Waning Crescent, 32% of the Moon is Illuminated
Jan 6
Waning Crescent
Jan 11
New
Jan 18
First Quarter
Jan 26
Full
Feb 3
Last Quarter

Hourly Weather History & Observations

Time (PST) Temp. Windchill Dew Point Humidity Pressure Visibility Wind Dir Wind Speed Gust Speed Precip Events Conditions
12:53 AM 37.0 °F 33.3 °F 18.0 °F 46% 30.17 in 10.0 mi WSW 4.6 mph - N/A   Clear
1:53 AM 37.9 °F 34.4 °F 18.0 °F 45% 30.16 in 10.0 mi West 4.6 mph - N/A   Clear
2:53 AM 37.9 °F - 19.0 °F 47% 30.14 in 10.0 mi Calm Calm - N/A   Clear
3:53 AM 39.9 °F 37.8 °F 19.9 °F 45% 30.13 in 10.0 mi West 3.5 mph - N/A   Clear
4:53 AM 39.9 °F 37.8 °F 21.0 °F 47% 30.12 in 10.0 mi West 3.5 mph - N/A   Clear
5:53 AM 39.0 °F 36.8 °F 21.0 °F 49% 30.12 in 10.0 mi SW 3.5 mph - N/A   Clear
6:53 AM 37.9 °F - 17.1 °F 43% 30.12 in 10.0 mi Calm Calm - N/A   Clear
7:53 AM 39.9 °F - 25.0 °F 55% 30.13 in 10.0 mi Calm Calm - N/A   Clear
8:53 AM 48.9 °F - 21.0 °F 33% 30.13 in 10.0 mi Calm Calm - N/A   Clear
9:53 AM 55.9 °F - 23.0 °F 28% 30.12 in 10.0 mi Calm Calm - N/A   Clear
10:53 AM 64.0 °F - 37.0 °F 37% 30.09 in 10.0 mi SW 6.9 mph - N/A   Clear
11:53 AM 64.0 °F - 34.0 °F 33% 30.05 in 10.0 mi WNW 6.9 mph - N/A   Scattered Clouds
12:53 PM 64.9 °F - 33.1 °F 31% 30.02 in 10.0 mi NW 12.7 mph - N/A   Partly Cloudy
1:53 PM 64.0 °F - 32.0 °F 30% 30.01 in 10.0 mi WNW 13.8 mph 21.9 mph N/A   Partly Cloudy
2:53 PM 66.0 °F - 30.0 °F 26% 30.00 in 10.0 mi WNW 9.2 mph 17.3 mph N/A   Partly Cloudy
3:53 PM 63.0 °F - 30.0 °F 29% 30.00 in 10.0 mi WNW 15.0 mph - N/A   Partly Cloudy
4:53 PM 60.1 °F - 32.0 °F 35% 29.99 in 10.0 mi WNW 12.7 mph - N/A   Mostly Cloudy
5:53 PM 53.1 °F - 32.0 °F 45% 30.00 in 10.0 mi West 9.2 mph - N/A   Clear
6:53 PM 53.1 °F - 34.0 °F 48% 29.98 in 10.0 mi WSW 16.1 mph - N/A   Clear
7:53 PM 51.1 °F - 34.0 °F 52% 29.99 in 10.0 mi WSW 11.5 mph - N/A   Clear
8:53 PM 53.1 °F - 36.0 °F 52% 29.99 in 10.0 mi West 15.0 mph - N/A   Clear
9:53 PM 50.0 °F - 35.1 °F 57% 29.99 in 10.0 mi WSW 9.2 mph - N/A   Clear
10:53 PM 51.1 °F - 37.0 °F 59% 29.98 in 10.0 mi West 9.2 mph - N/A   Scattered Clouds
11:53 PM 53.1 °F - 37.9 °F 57% 29.98 in 10.0 mi West 11.5 mph - N/A   Overcast